Lid_Strength_Index
2 1 2 1 1 1 2 3 2 2 2 2 3 3 4 4 4 4 4 3 3 3 3 3 4 4 3 5 5 1 -3 -2 -1 0 2 3 5 5 7 6 6 7 7 6 5 5 5
2 2 2 2 2 2 2 3 2 3 2 2 3 3 4 4 4 4 4 4 3 3 2 3 3 4 4 6 1 2 2 -0 0 1 2 3 4 4 6 6 7 6 6 6 5 5 5
2 2 2 2 2 2 2 3 3 2 3 3 3 3 4 4 4 4 4 4 3 3 2 2 3 3 5 7 1 -1 -0 1 0 1 3 2 2 4 5 6 5 6 8 7 6 6 6
2 2 2 2 2 2 2 2 3 3 3 3 3 3 3 4 4 4 3 3 3 3 2 2 2 3 7 1 0 0 -0 1 0 0 1 1 1 3 5 4 6 8 8 11 7 6 6
2 2 2 2 2 2 2 3 3 4 3 2 3 3 3 4 4 4 3 3 3 2 1 1 2 5 7 -0 2 1 0 2 1 1 1 1 2 4 5 7 9 8 11 11 9 6 7
2 2 2 2 2 2 2 3 4 4 4 3 3 3 3 4 4 3 4 3 2 1 1 -0 1 7 7 4 2 1 0 1 3 3 4 4 5 7 7 8 13 11 10 10 10 8 7
2 2 2 2 2 2 2 3 4 4 4 4 3 3 3 4 4 4 3 1 3 3 3 5 5 6 6 3 1 2 1 2 3 4 7 6 8 8 8 7 7 8 9 10 9 7 8
3 3 2 2 2 2 3 3 4 4 4 4 3 3 4 4 5 5 3 3 2 2 5 2 2 4 3 4 5 3 1 5 5 8 6 8 9 7 6 7 8 8 10 10 9 8 8
3 3 2 2 3 3 3 3 4 4 4 4 5 4 4 4 5 4 3 3 1 1 4 4 3 3 3 4 5 4 3 4 6 7 7 9 7 6 7 7 8 8 10 10 10 8 8
3 3 3 3 3 3 3 3 4 4 5 5 5 5 5 6 7 3 3 3 2 1 6 6 5 3 2 4 7 2 2 4 6 8 7 7 6 7 7 8 7 10 7 8 9 10 12
3 3 3 3 3 3 3 3 3 4 5 5 5 7 7 7 3 3 2 2 2 2 11 6 5 1 2 4 4 4 2 4 7 7 7 8 7 7 8 8 7 9 7 8 9 10 10
3 3 3 3 3 3 4 4 4 4 4 5 6 8 8 6 4 4 2 3 3 8 13 7 5 5 5 4 4 4 4 3 3 6 6 7 4 6 6 6 6 7 8 8 9 9 12
3 3 3 3 4 4 4 4 4 4 4 5 6 8 7 2 3 2 3 3 8 10 6 8 7 5 5 6 5 5 6 7 7 9 9 7 7 5 5 7 7 7 9 12 13 12 13
4 4 4 4 4 4 4 4 4 4 5 5 7 8 5 2 1 2 3 5 11 8 8 6 6 6 7 5 6 7 6 7 5 6 8 9 10 7 5 7 8 8 9 12 16 14 12
4 4 4 4 4 4 4 4 4 5 5 5 6 2 1 0 1 2 4 8 9 8 6 7 6 7 7 6 6 6 6 6 5 5 8 9 9 6 5 5 6 9 10 8 10 10 13
4 4 4 4 4 4 4 5 5 5 5 6 0 1 2 1 1 3 5 9 7 6 6 6 8 7 8 7 7 7 7 5 6 5 4 7 9 6 6 5 6 7 7 11 10 14 14
4 4 4 4 4 4 5 5 5 6 6 6 1 3 2 1 2 4 7 7 6 5 5 7 7 7 7 7 7 7 7 6 5 5 4 5 7 7 6 7 8 8 9 8 8 10 13
6 6 5 5 5 5 5 5 6 6 7 4 2 5 -0 1 5 4 6 6 8 5 5 6 5 6 7 6 7 7 7 6 5 5 6 5 6 8 7 5 5 6 7 7 10 11 10
5 5 5 5 5 5 5 6 7 7 7 3 4 3 -0 1 7 7 6 6 5 6 5 6 6 6 5 7 8 7 6 5 5 5 6 5 7 9 8 7 6 7 6 6 7 8 10
5 5 5 5 5 5 5 6 7 7 7 3 4 6 4 2 3 6 7 7 7 5 6 5 6 5 6 7 6 7 7 5 5 5 3 4 6 8 10 8 7 8 7 6 7 9 9
5 5 5 5 5 5 6 6 6 7 7 4 4 6 5 8 6 6 6 7 8 7 5 5 6 6 7 8 7 7 6 6 5 6 5 5 8 7 7 6 6 7 7 7 8 7 9
6 5 5 5 5 5 5 5 6 7 7 6 8 8 7 5 5 6 7 7 8 7 7 7 7 6 6 8 7 8 7 6 6 5 5 5 8 7 8 6 7 7 7 7 7 7 7
6 6 5 5 5 5 5 5 6 7 6 7 6 5 6 9 8 6 7 8 7 6 6 5 6 7 7 6 5 5 4 5 5 5 6 6 7 8 9 7 7 9 7 7 6 6 6
6 6 6 6 6 5 6 6 6 6 7 6 7 7 8 10 10 9 9 8 7 8 8 6 6 6 5 3 3 4 4 5 5 5 4 6 7 7 9 9 12 7 5 5 6 6 5
6 6 6 6 6 6 6 6 6 6 7 7 7 7 9 11 10 10 9 10 9 7 7 5 5 4 3 4 7 8 8 7 6 5 5 5 6 8 10 10 8 7 6 6 7 7 5
7 7 7 6 6 7 7 7 6 6 6 7 7 6 8 10 9 8 10 8 10 10 8 5 4 3 4 6 7 11 12 9 9 8 5 5 5 8 9 11 12 7 5 4 5 9 4
7 7 7 7 7 7 7 7 7 6 6 7 7 7 8 10 8 7 9 10 9 10 10 8 7 6 3 7 9 10 10 7 10 9 9 8 8 9 9 10 8 5 5 5 10 7 5
7 7 7 7 7 7 7 7 7 7 6 7 7 6 9 10 10 9 9 9 8 8 10 8 9 7 7 9 9 8 9 8 8 7 8 9 10 9 9 10 11 4 5 7 5 4 4
8 8 7 7 7 7 7 7 7 7 6 6 9 7 7 10 10 8 8 7 8 8 9 9 9 8 6 8 7 8 9 7 8 10 5 9 7 8 7 8 4 4 4 4 3 4 4